Погода в Сан-Франциско

США     37°45′33″N   122°26′49″W
В апреле 2022 года жителям России запретили посещать сайт meteo.paraplan.net по решению Генеральной прокуратуры. Аудитория сайта уменьшилась в 10 раз. Владельцы сайта не видят смысла в поддержке погодного сервера в таких условиях. Сайт будет закрыт в октябре.
темп.,
°C
ветер,
м/с
пор.,
м/с
влажн.,
%
обл.,
%
осадки,
мм/ч
давл.,
гПа
погр.,
м
4 октября, вт
вт423:00+15з35869 0.0 1017327
02:00+15зюз358929 0.0 1016315
05:00+15юз239168 0.0 1016230
08:00+15зюз128923 0.0 1017212
11:00+17зюз227819 0.0 1017246
14:00+17з447823 0.0 1016253
17:00+17з467915 0.0 1015241
20:00+16з45831 0.0 1015222
5 октября, ср
ср523:00+16зюз24865 0.0 1015199
02:00+16ююв128613 0.0 101589
05:00+15з11871 0.0 101549
08:00+16юв11850 0.0 101538
11:00+18з11700 0.0 1016131
14:00+19з33680 0.0 1015181
17:00+17з45740 0.0 1014160
20:00+16зюз34827 0.0 1015149
6 октября, чт
чт623:00+16юз23879 0.0 1015115
02:00+15юз229058 0.0 1015138
05:00+15юз2289100 0.0 1015114
08:00+15ююз1188100 0.0 1016113
11:00+18зюз11717 0.0 1017137
14:00+19зюз33695 0.0 1016197
17:00+18з447497 0.0 1016181
20:00+16зюз348194 0.0 1017153
7 октября, пт
пт723:00+16зюз33859 0.0 1017142
02:00+15юз22875 0.0 1017118
05:00+15зюз11871 0.0 101785
08:00+16зюз00810 0.0 101844
11:00+19св22610 0.0 101791
14:00+22зсз32520 0.0 1016124
17:00+19з45650 0.0 1015129
20:00+18зюз34710 0.0 101589
8 октября, сб
сб823:00+17юз23750 0.0 101667
02:00+16зюз22770 0.0 101567
05:00+16зюз11770 0.0 101535
08:00+17з11740 0.0 101519
11:00+19з11610 0.0 101685
14:00+21зюз33580 0.0 1014152
17:00+19зюз45660 0.0 1013170
20:00+17зюз34770 0.0 1014154